Olympia, WA
on Tuesday, February 12, 2013

Tuesday
Previous Day Next Day
Daily Summary
 ActualAverageRecord
Temperature
Mean Temperature °F / °C 41°F / 5°C  
Max Temperature 51°F / 11°C 49°F / 9°C 62°F / 16°C (1963)
Min Temperature 43°F / 6°C 33°F / 1°C 16°F / -8°C (1949)
Degree Days
Heating Degree Days 18 24  
Month to date heating degree days 273 289  
Since 1 July heating degree days 3311 3340  
Cooling Degree Days 0 0  
Month to date cooling degree days 0 0  
Year to date cooling degree days 0 0  
Moisture
Dew Point 44°F / 7°C   
Average Humidity 87    
Maximum Humidity 100    
Minimum Humidity 74    
Precipitation
Precipitation 0.04 in / 1.02 cm 0.19 in / 4.83 cm 1.59 in / 4.04 cm (1954)
Month to date precipitation 0.59 2.42  
Year to date precipitation 4.50 10.26  
Wind
Wind Speed 9 mph / 14 km/h   
Max Wind Speed 16 mph / 26 km/h   
Max Gust Speed 22 mph / 35 km/h   
Visibility 8 miles / 13 kilometers   
Events Rain   

Key: T is trace of precipitation, MM is missing value
Source: NWS Daily Summary
Time(PST)TemperatureDew PointHumidity Pressure Visibility Wind DirectionWind SpeedGust SpeedPrecipitationEvents Conditions
12:09 AM 44.1°F / 6.7°C 42.1°F / 5.6°C 93% 30.36 in / 1028.0 hPa 10.0 miles / 16.1 kilometers SSW 6.9 mph / 11.1 km/h - N/A   Overcast
12:22 AM 44.1°F / 6.7°C 43.0°F / 6.1°C 96% 30.36 in / 1028.0 hPa 10.0 miles / 16.1 kilometers SSW 6.9 mph / 11.1 km/h - N/A   Overcast
12:54 AM 44.1°F / 6.7°C 43.0°F / 6.1°C 96% 30.36 in / 1028.1 hPa 10.0 miles / 16.1 kilometers South 8.1 mph / 13.0 km/h - N/A   Overcast
1:05 AM 44.1°F / 6.7°C 43.0°F / 6.1°C 96% 30.36 in / 1028.0 hPa 9.0 miles / 14.5 kilometers South 6.9 mph / 11.1 km/h - N/A   Overcast
1:54 AM 44.1°F / 6.7°C 43.0°F / 6.1°C 96% 30.36 in / 1027.9 hPa 10.0 miles / 16.1 kilometers SSW 9.2 mph / 14.8 km/h - N/A   Overcast
2:26 AM 44.1°F / 6.7°C 43.0°F / 6.1°C 96% 30.36 in / 1028.0 hPa 10.0 miles / 16.1 kilometers SSW 9.2 mph / 14.8 km/h - N/A   Overcast
2:45 AM 44.1°F / 6.7°C 43.0°F / 6.1°C 96% 30.36 in / 1028.0 hPa 10.0 miles / 16.1 kilometers SSW 6.9 mph / 11.1 km/h - N/A   Overcast
2:54 AM 45.0°F / 7.2°C 43.0°F / 6.1°C 93% 30.37 in / 1028.3 hPa 10.0 miles / 16.1 kilometers SSW 6.9 mph / 11.1 km/h - N/A   Overcast
3:09 AM 44.1°F / 6.7°C 43.0°F / 6.1°C 96% 30.36 in / 1028.0 hPa 10.0 miles / 16.1 kilometers South 8.1 mph / 13.0 km/h - N/A   Overcast
3:28 AM 44.1°F / 6.7°C 43.0°F / 6.1°C 96% 30.36 in / 1028.0 hPa 9.0 miles / 14.5 kilometers SSW 6.9 mph / 11.1 km/h - N/A   Overcast
3:54 AM 44.1°F / 6.7°C 43.0°F / 6.1°C 96% 30.36 in / 1028.1 hPa 9.0 miles / 14.5 kilometers South 8.1 mph / 13.0 km/h - N/A   Overcast
4:23 AM 44.1°F / 6.7°C 43.0°F / 6.1°C 96% 30.36 in / 1028.0 hPa 9.0 miles / 14.5 kilometers South 8.1 mph / 13.0 km/h - N/A   Overcast
4:39 AM 44.1°F / 6.7°C 42.1°F / 5.6°C 93% 30.35 in / 1027.7 hPa 8.0 miles / 12.9 kilometers South 9.2 mph / 14.8 km/h - N/A   Overcast
4:54 AM 44.1°F / 6.7°C 42.1°F / 5.6°C 93% 30.37 in / 1028.3 hPa 8.0 miles / 12.9 kilometers SSW 8.1 mph / 13.0 km/h - N/A   Overcast
5:04 AM 44.1°F / 6.7°C 43.0°F / 6.1°C 96% 30.36 in / 1028.0 hPa 6.0 miles / 9.7 kilometers South 8.1 mph / 13.0 km/h - N/A   Overcast
5:18 AM 44.1°F / 6.7°C 43.0°F / 6.1°C 96% 30.37 in / 1028.3 hPa 6.0 miles / 9.7 kilometers South 6.9 mph / 11.1 km/h - N/A   Overcast
5:44 AM 44.1°F / 6.7°C 42.1°F / 5.6°C 93% 30.36 in / 1028.0 hPa 9.0 miles / 14.5 kilometers South 9.2 mph / 14.8 km/h - N/A   Overcast
5:54 AM 44.1°F / 6.7°C 42.1°F / 5.6°C 93% 30.37 in / 1028.2 hPa 9.0 miles / 14.5 kilometers South 9.2 mph / 14.8 km/h - N/A   Overcast
6:21 AM 44.1°F / 6.7°C 42.1°F / 5.6°C 93% 30.37 in / 1028.3 hPa 9.0 miles / 14.5 kilometers South 8.1 mph / 13.0 km/h - N/A   Overcast
6:39 AM 44.1°F / 6.7°C 42.1°F / 5.6°C 93% 30.37 in / 1028.3 hPa 7.0 miles / 11.3 kilometers South 8.1 mph / 13.0 km/h - N/A   Overcast
6:47 AM 44.1°F / 6.7°C 42.1°F / 5.6°C 93% 30.37 in / 1028.3 hPa 5.0 miles / 8.0 kilometers SSW 9.2 mph / 14.8 km/h - N/A   Overcast
6:54 AM 44.1°F / 6.7°C 42.1°F / 5.6°C 93% 30.38 in / 1028.6 hPa 5.0 miles / 8.0 kilometers SSW 9.2 mph / 14.8 km/h - N/A   Overcast
7:45 AM 44.1°F / 6.7°C 43.0°F / 6.1°C 96% 30.39 in / 1029.0 hPa 7.0 miles / 11.3 kilometers SSW 5.8 mph / 9.3 km/h - N/A   Overcast
7:54 AM 44.1°F / 6.7°C 43.0°F / 6.1°C 96% 30.40 in / 1029.3 hPa 6.0 miles / 9.7 kilometers SSW 5.8 mph / 9.3 km/h - N/A   Overcast
8:54 AM 45.0°F / 7.2°C 43.0°F / 6.1°C 93% 30.41 in / 1029.6 hPa 8.0 miles / 12.9 kilometers SSW 5.8 mph / 9.3 km/h - N/A   Overcast
9:34 AM 45.0°F / 7.2°C 44.1°F / 6.7°C 97% 30.40 in / 1029.3 hPa 1.8 miles / 2.8 kilometers SSW 9.2 mph / 14.8 km/h - N/A   Overcast
9:52 AM 46.4°F / 8.0°C 44.6°F / 7.0°C 93% 30.41 in / 1029.7 hPa 2.5 miles / 4.0 kilometers SSW 8.1 mph / 13.0 km/h - N/A   Overcast
9:54 AM 46.0°F / 7.8°C 44.1°F / 6.7°C 93% 30.41 in / 1029.7 hPa 2.5 miles / 4.0 kilometers SSW 8.1 mph / 13.0 km/h - N/A   Overcast
10:54 AM 48.0°F / 8.9°C 45.0°F / 7.2°C 89% 30.42 in / 1029.9 hPa 2.0 miles / 3.2 kilometers SW 10.4 mph / 16.7 km/h - N/A   Overcast
11:01 AM 48.9°F / 9.4°C 46.0°F / 7.8°C 90% 30.41 in / 1029.7 hPa 8.0 miles / 12.9 kilometers SW 9.2 mph / 14.8 km/h - N/A   Overcast
11:54 AM 48.0°F / 8.9°C 46.0°F / 7.8°C 93% 30.42 in / 1030.1 hPa 7.0 miles / 11.3 kilometers SSW 10.4 mph / 16.7 km/h - N/A   Overcast
12:54 PM 50.0°F / 10.0°C 45.0°F / 7.2°C 83% 30.40 in / 1029.5 hPa 10.0 miles / 16.1 kilometers SW 13.8 mph / 22.2 km/h 19.6 mph / 31.5 km/h N/A   Overcast
1:52 PM 50.0°F / 10.0°C 44.6°F / 7.0°C 82% 30.39 in / 1029.0 hPa 10.0 miles / 16.1 kilometers WSW 16.1 mph / 25.9 km/h 21.9 mph / 35.2 km/h N/A   Overcast
1:54 PM 50.0°F / 10.0°C 44.1°F / 6.7°C 80% 30.39 in / 1029.1 hPa 10.0 miles / 16.1 kilometers SW 9.2 mph / 14.8 km/h 21.9 mph / 35.2 km/h N/A   Overcast
2:54 PM 50.0°F / 10.0°C 43.0°F / 6.1°C 77% 30.38 in / 1028.5 hPa 10.0 miles / 16.1 kilometers SSW 11.5 mph / 18.5 km/h - N/A   Overcast
3:54 PM 50.0°F / 10.0°C 44.1°F / 6.7°C 80% 30.39 in / 1029.0 hPa 10.0 miles / 16.1 kilometers WSW 8.1 mph / 13.0 km/h - N/A   Overcast
4:54 PM 50.0°F / 10.0°C 44.1°F / 6.7°C 80% 30.38 in / 1028.8 hPa 10.0 miles / 16.1 kilometers SW 8.1 mph / 13.0 km/h - N/A   Overcast
5:36 PM 48.0°F / 8.9°C 46.0°F / 7.8°C 93% 30.39 in / 1029.0 hPa 5.0 miles / 8.0 kilometers SW 6.9 mph / 11.1 km/h - N/A   Overcast
5:44 PM 48.0°F / 8.9°C 46.0°F / 7.8°C 93% 30.39 in / 1029.0 hPa 6.0 miles / 9.7 kilometers SW 6.9 mph / 11.1 km/h - N/A   Overcast
5:54 PM 48.0°F / 8.9°C 46.0°F / 7.8°C 93% 30.39 in / 1029.0 hPa 10.0 miles / 16.1 kilometers SW 8.1 mph / 13.0 km/h - N/A   Overcast
6:49 PM 48.2°F / 9.0°C 46.4°F / 8.0°C 93% 30.38 in / 1028.7 hPa 10.0 miles / 16.1 kilometers SSW 8.1 mph / 13.0 km/h - 0.00 in / 0.0 cm   Overcast
6:54 PM 46.9°F / 8.3°C 46.0°F / 7.8°C 97% 30.39 in / 1029.1 hPa 10.0 miles / 16.1 kilometers SSW 9.2 mph / 14.8 km/h - 0.00 in / 0.0 cm   Overcast
7:54 PM 46.9°F / 8.3°C 45.0°F / 7.2°C 93% 30.38 in / 1028.7 hPa 8.0 miles / 12.9 kilometers SSW 9.2 mph / 14.8 km/h - 0.01 in / 0.3 cm   Overcast
8:14 PM 46.9°F / 8.3°C 45.0°F / 7.2°C 93% 30.37 in / 1028.3 hPa 10.0 miles / 16.1 kilometers SSW 10.4 mph / 16.7 km/h - N/A   Overcast
8:54 PM 46.9°F / 8.3°C 45.0°F / 7.2°C 93% 30.38 in / 1028.6 hPa 10.0 miles / 16.1 kilometers SSW 6.9 mph / 11.1 km/h - N/A   Overcast
9:03 PM 46.9°F / 8.3°C 45.0°F / 7.2°C 93% 30.37 in / 1028.3 hPa 10.0 miles / 16.1 kilometers SW 6.9 mph / 11.1 km/h - N/A   Overcast
9:54 PM 46.9°F / 8.3°C 45.0°F / 7.2°C 93% 30.38 in / 1028.6 hPa 5.0 miles / 8.0 kilometers SW 5.8 mph / 9.3 km/h - 0.00 in / 0.0 cm Rain Light Rain
10:54 PM 46.9°F / 8.3°C 45.0°F / 7.2°C 93% 30.38 in / 1028.6 hPa 10.0 miles / 16.1 kilometers SSW 8.1 mph / 13.0 km/h - 0.02 in / 0.5 cm   Overcast
11:54 PM 46.0°F / 7.8°C 45.0°F / 7.2°C 96% 30.38 in / 1028.5 hPa 8.0 miles / 12.9 kilometers SSW 10.4 mph / 16.7 km/h - 0.01 in / 0.3 cm   Overcast
Moon Phase
Feb. 12 Feb. 17 Feb. 25 Mar. 04 Mar. 11
Sunrise:07:20 AM (PST) Moon Rise:08:06 AM (PST)2/12
Sunset:05:32 PM (PST) Moon Set:08:55 PM (PST)2/12

Copyright © 2014 The Weather Underground, Inc.